Wind_Speed
3 3 3 3 3 3 2 1 1 1 1 2 2 2 2 2 2 2 3 3 2 2 3 3 2 2 3 3 2 2 2 2 1 1 1 1 1 1 1 1 1 2 2
3 3 3 3 3 3 3 2 1 1 1 2 2 2 2 2 2 2 2 2 2 2 2 2 2 2 2 2 2 2 2 2 2 2 2 2 3 2 2 2 2 3 2
3 3 4 3 3 3 3 3 2 2 2 2 2 3 3 2 2 2 2 2 2 2 2 2 2 2 2 3 3 3 3 3 3 3 3 3 3 3 3 3 4 3 3
4 4 4 5 5 5 5 4 4 3 3 3 3 4 3 3 3 3 2 2 3 3 3 3 3 3 3 3 4 4 3 4 4 4 4 3 3 3 4 4 4 4 4
5 5 6 6 6 6 6 5 6 5 4 4 5 5 4 4 4 4 3 3 3 3 4 3 4 4 4 4 4 4 4 5 4 4 5 5 4 4 4 4 4 4 4
6 6 6 6 6 6 6 6 7 6 6 6 6 6 5 4 5 5 5 4 4 5 5 5 5 5 5 5 5 5 6 6 6 5 5 6 5 5 5 5 5 6 6
7 7 7 7 7 7 7 7 8 8 7 7 7 6 6 6 6 6 6 6 6 6 6 6 6 6 6 6 6 7 7 7 7 7 7 7 7 7 7 7 7 8 8
7 7 7 8 8 7 8 9 8 8 8 9 9 8 7 7 7 7 8 8 8 8 7 7 7 7 8 8 8 8 8 8 8 8 8 9 9 9 9 9 9 10 10
7 7 8 8 8 7 8 9 9 9 9 9 9 9 8 8 9 8 9 9 9 9 9 9 9 9 9 9 9 10 10 10 10 10 10 11 11 11 11 11 11 12 12
8 8 8 8 8 8 9 9 9 9 9 9 9 10 10 10 10 10 10 10 10 11 11 11 10 11 10 10 11 11 11 12 12 12 12 13 13 13 13 13 13 13 14
8 8 8 8 9 9 9 10 10 10 9 10 10 11 12 12 12 12 12 12 12 12 12 12 12 12 13 12 12 13 13 14 14 14 14 14 14 14 14 14 15 15 15
9 9 9 9 10 10 10 11 11 11 11 10 11 11 12 13 13 13 14 14 14 14 14 14 15 15 15 15 15 15 15 16 16 16 16 16 16 16 16 16 16 17 17
9 9 9 9 10 10 11 12 12 12 12 12 12 12 13 13 14 15 15 15 15 16 16 17 17 17 17 17 17 18 18 18 18 18 18 18 18 18 18 18 18 18 18
9 9 9 10 11 11 12 12 12 12 13 13 13 14 14 15 15 16 16 16 16 16 17 18 18 19 19 19 19 19 19 19 19 19 19 19 20 20 21 21 20 20 20
10 10 10 10 10 12 12 13 13 13 13 14 14 15 15 15 16 16 16 17 17 16 17 18 19 19 19 20 20 20 20 20 21 20 21 21 22 22 21 21 22 22 22
11 11 11 11 12 12 13 13 14 14 14 14 15 15 16 17 17 17 18 18 18 18 18 19 19 19 19 19 20 20 20 20 21 22 22 23 23 23 23 24 24 25 25
13 13 13 13 13 14 14 15 15 15 16 16 17 17 18 18 18 18 19 19 19 19 19 19 20 20 20 20 20 21 21 21 22 22 22 23 23 24 25 25 25 26 26
14 14 15 15 15 15 16 16 17 16 17 18 18 19 19 19 19 19 20 20 20 20 20 21 21 21 21 22 22 22 22 23 22 23 23 24 25 25 26 27 27 28 28
15 16 16 16 16 16 17 18 18 18 19 19 19 19 19 20 20 20 20 21 21 22 22 21 21 22 23 23 23 23 24 24 24 23 24 26 27 28 28 28 29 30 31
16 16 17 17 17 17 18 18 19 19 20 20 19 20 20 20 21 21 22 22 22 23 23 23 23 24 25 25 25 25 25 26 26 26 26 26 27 28 30 30 30 31 33
17 17 17 18 18 19 19 19 19 19 19 20 20 21 22 22 22 22 23 23 24 24 25 25 25 26 26 26 26 27 28 28 28 29 28 29 29 30 31 32 33 33 34
18 18 18 19 19 19 19 19 20 20 20 21 22 22 23 23 24 24 25 25 25 25 26 26 27 27 28 29 29 29 30 30 30 30 30 31 32 32 33 33 34 34 35
18 18 19 20 19 19 19 19 19 20 21 22 23 24 24 25 25 25 26 26 26 26 26 27 28 29 30 30 30 31 31 32 32 32 33 33 34 34 35 35 35 35 36
19 19 19 20 19 19 20 20 20 21 22 23 24 25 25 25 25 25 26 27 27 28 28 29 30 31 32 31 32 32 32 33 33 34 34 34 35 35 36 36 36 36 36
20 20 20 20 20 21 21 22 22 23 23 24 25 25 25 26 26 27 28 29 30 30 30 31 32 32 33 32 32 32 33 33 34 34 35 35 36 37 37 37 37 37 38
20 20 20 21 21 22 22 23 24 24 24 25 24 25 26 27 28 29 30 30 31 31 32 32 32 33 33 34 35 35 35 35 35 35 36 36 36 37 37 38 39 39 40
Wind_Direction
11 24 31 32 33 28 26 43 47 45 36 48 45 40 32 20 24 33 41 44 46 47 42 33 41 35 31 22 13 2 3 4 341 338 343 336 335 315 307 311 305 294 275
0 1 4 9 11 0 357 343 332 356 17 18 18 7 359 356 357 24 15 9 15 19 15 12 7 1 1 354 354 350 344 336 322 311 304 298 299 297 290 288 294 294 276
352 347 342 342 342 337 335 334 326 319 322 331 343 345 339 326 327 328 331 336 350 350 344 341 335 339 340 344 345 338 323 320 315 313 307 300 297 295 290 283 282 282 267
330 331 329 328 327 322 317 317 315 306 299 306 315 321 322 313 306 306 310 324 336 335 332 332 332 334 332 330 331 330 317 313 311 306 300 296 297 294 292 284 278 272 265
313 318 321 323 323 315 311 309 307 301 299 298 300 305 310 315 308 304 299 307 321 325 325 323 319 323 329 327 322 317 313 308 302 301 297 288 287 290 293 288 279 271 261
304 304 308 314 319 314 310 306 307 303 302 300 295 295 293 293 293 292 290 293 300 306 308 306 310 312 315 320 319 314 311 309 302 294 296 298 291 285 289 288 282 276 269
299 303 309 317 316 308 304 303 300 296 294 296 296 295 293 291 291 291 289 288 292 298 298 298 301 304 304 308 309 309 309 308 305 301 296 294 293 288 286 285 282 280 275
300 302 306 312 311 306 306 302 294 293 293 290 290 291 292 291 291 288 286 285 285 289 289 290 291 294 297 300 300 299 301 302 300 298 295 290 288 285 283 284 282 281 277
306 303 303 305 309 306 305 304 293 289 291 291 291 291 288 286 288 289 288 287 286 286 287 291 293 293 293 294 294 294 295 295 295 293 289 288 286 283 283 283 282 282 279
303 307 299 299 303 304 305 306 300 296 294 294 294 293 290 287 285 285 284 285 285 285 286 287 286 286 288 290 288 289 290 291 291 290 287 286 286 284 282 281 281 282 280
302 306 302 299 300 301 303 303 302 300 296 293 291 290 287 286 285 285 286 287 286 287 285 284 285 284 287 287 287 286 288 290 289 288 286 286 285 284 282 281 281 281 279
298 300 300 299 300 299 301 303 302 300 297 293 291 292 290 288 285 284 284 286 286 286 286 285 285 285 285 286 285 283 285 288 286 285 285 285 284 283 282 281 281 281 279
299 300 295 298 304 303 300 300 302 301 298 294 292 293 293 292 290 287 285 285 284 284 286 285 285 286 286 286 285 282 282 283 281 281 282 283 283 282 281 280 279 278 277
304 301 299 300 301 305 303 298 299 300 299 296 295 293 293 294 294 290 286 287 286 285 284 287 286 287 285 285 285 283 283 282 281 281 282 282 281 281 280 280 279 278 276
304 303 302 300 300 300 301 299 300 300 300 299 298 298 295 295 296 294 290 288 290 290 290 290 289 287 287 286 284 284 283 283 282 281 282 283 281 280 281 280 280 278 275
302 303 304 303 301 299 298 300 299 298 299 298 297 299 298 296 296 295 295 292 292 293 295 293 294 291 289 288 289 288 286 286 285 284 283 282 281 282 280 281 280 279 278
303 302 306 304 299 295 297 299 299 297 297 297 297 296 296 298 296 294 293 292 291 292 293 294 292 292 290 287 288 289 289 287 287 285 285 285 284 283 282 281 281 281 279
301 300 304 306 304 299 296 297 298 298 298 298 298 297 297 298 297 294 293 291 290 290 291 292 291 290 291 290 290 290 289 287 289 288 286 286 285 284 283 281 280 280 279
296 297 299 303 304 302 301 301 298 297 299 301 300 300 298 297 298 296 296 293 292 292 292 290 288 287 288 290 290 290 287 286 288 288 287 285 284 284 284 283 281 281 280
295 296 299 301 303 303 302 301 299 297 297 299 300 301 300 299 298 297 297 296 294 294 293 290 289 287 285 287 288 289 288 288 289 290 288 287 287 286 284 283 283 282 280
294 295 297 299 301 301 300 299 298 297 297 297 298 300 301 300 300 300 300 298 297 296 294 292 289 288 288 288 290 289 289 288 288 289 288 287 286 285 285 284 283 283 281
295 296 296 298 301 302 300 298 297 296 296 296 297 298 300 300 300 301 299 298 298 296 295 294 292 290 288 289 289 289 289 288 288 288 289 288 286 285 285 285 285 284 284
294 296 296 298 299 300 299 299 298 297 297 297 297 298 298 298 300 300 299 298 297 296 296 296 293 292 291 289 290 291 291 289 289 289 288 288 287 287 286 285 286 286 284
294 295 295 296 297 298 300 301 299 299 299 299 299 299 298 298 299 299 299 299 298 296 295 294 294 293 293 292 293 293 292 293 292 290 290 289 289 288 287 288 287 286 285
293 293 293 293 293 296 298 298 300 301 301 301 301 300 300 300 300 299 298 299 299 298 297 297 297 296 295 294 295 295 295 295 295 294 292 290 289 289 288 287 285 285 286
293 292 293 293 293 294 296 298 299 300 302 303 302 302 301 300 299 299 300 300 299 299 299 298 298 296 296 296 296 296 296 295 295 293 292 290 289 289 287 286 287 287 286
Height
5906 5906 5906 5906 5906 5907 5907 5907 5907 5907 5907 5907 5907 5907 5907 5907 5907 5907 5907 5907 5907 5907 5907 5907 5907 5907 5907 5907 5907 5907 5906 5906 5906 5906 5906 5906 5905 5905 5905 5905 5905 5905 5905
5907 5907 5907 5907 5907 5907 5907 5907 5907 5908 5908 5908 5908 5908 5908 5908 5908 5908 5908 5908 5908 5908 5908 5908 5908 5907 5907 5907 5907 5907 5906 5906 5906 5905 5905 5905 5905 5905 5905 5905 5905 5904 5904
5907 5907 5907 5907 5907 5907 5907 5907 5907 5908 5908 5908 5908 5908 5908 5908 5908 5908 5908 5908 5908 5908 5908 5908 5908 5907 5907 5907 5907 5907 5906 5906 5905 5905 5905 5905 5904 5904 5904 5904 5904 5904 5904
5907 5907 5907 5907 5907 5907 5907 5907 5907 5908 5908 5908 5908 5908 5908 5908 5908 5908 5908 5908 5908 5908 5908 5907 5907 5907 5907 5907 5906 5906 5906 5905 5905 5904 5904 5904 5904 5903 5903 5903 5903 5903 5903
5907 5907 5907 5907 5907 5907 5906 5907 5907 5907 5907 5908 5908 5908 5908 5908 5907 5907 5907 5907 5907 5907 5907 5907 5907 5907 5907 5906 5906 5906 5905 5905 5904 5904 5903 5903 5903 5903 5902 5902 5902 5902 5902
5907 5907 5907 5907 5907 5906 5906 5906 5906 5906 5907 5907 5907 5907 5907 5907 5907 5907 5907 5907 5907 5907 5907 5906 5906 5906 5906 5906 5905 5905 5904 5904 5903 5903 5902 5902 5901 5901 5901 5901 5900 5900 5900
5906 5906 5906 5906 5906 5906 5905 5905 5905 5906 5906 5906 5906 5906 5906 5906 5906 5906 5905 5905 5905 5905 5905 5905 5905 5905 5905 5905 5904 5904 5903 5903 5902 5901 5901 5900 5900 5900 5899 5899 5899 5898 5898
5906 5906 5905 5905 5905 5905 5905 5904 5904 5904 5904 5904 5905 5905 5905 5905 5904 5904 5904 5904 5903 5903 5903 5903 5904 5903 5903 5903 5902 5902 5901 5901 5900 5900 5899 5899 5898 5898 5897 5897 5897 5896 5896
5905 5905 5905 5905 5904 5904 5904 5903 5903 5903 5903 5903 5903 5903 5903 5903 5903 5903 5902 5902 5901 5902 5902 5901 5901 5901 5901 5901 5900 5900 5899 5899 5898 5898 5897 5896 5896 5895 5895 5894 5894 5893 5893
5903 5903 5903 5903 5903 5902 5902 5902 5902 5901 5901 5901 5901 5901 5901 5901 5901 5901 5901 5900 5900 5900 5899 5899 5899 5898 5898 5898 5897 5897 5896 5896 5896 5895 5894 5894 5893 5893 5892 5891 5891 5890 5890
5902 5902 5902 5902 5901 5901 5901 5900 5900 5900 5899 5899 5899 5899 5899 5898 5898 5898 5898 5898 5898 5897 5897 5897 5897 5896 5895 5895 5894 5894 5894 5893 5892 5892 5891 5890 5890 5889 5889 5888 5887 5887 5886
5900 5900 5900 5899 5899 5899 5899 5899 5898 5898 5897 5897 5897 5896 5896 5896 5896 5895 5895 5895 5895 5894 5894 5894 5893 5893 5893 5892 5892 5891 5890 5890 5889 5888 5887 5887 5886 5885 5885 5884 5883 5883 5882
5898 5898 5897 5897 5897 5897 5897 5897 5896 5895 5895 5894 5894 5894 5894 5893 5893 5892 5892 5891 5891 5891 5890 5890 5888 5888 5888 5888 5888 5887 5886 5885 5885 5884 5883 5882 5881 5881 5880 5879 5879 5878 5877
5896 5896 5896 5896 5895 5895 5895 5894 5894 5893 5892 5892 5891 5891 5890 5890 5890 5889 5888 5888 5887 5887 5886 5885 5884 5884 5883 5883 5883 5882 5881 5881 5879 5879 5878 5877 5876 5876 5875 5874 5874 5873 5872
5894 5894 5893 5892 5892 5893 5892 5892 5891 5890 5890 5889 5889 5888 5887 5887 5886 5885 5885 5884 5883 5883 5882 5881 5880 5879 5878 5877 5877 5877 5876 5875 5874 5873 5873 5871 5871 5870 5870 5869 5868 5867 5866
5892 5892 5891 5891 5891 5890 5890 5889 5888 5888 5887 5886 5885 5885 5884 5883 5882 5881 5880 5879 5879 5879 5877 5876 5875 5875 5874 5873 5872 5871 5871 5870 5869 5868 5866 5866 5865 5864 5863 5862 5862 5861 5860
5890 5890 5889 5889 5888 5887 5887 5886 5885 5884 5884 5883 5882 5881 5880 5879 5878 5877 5876 5876 5875 5874 5873 5872 5871 5870 5869 5868 5867 5866 5865 5864 5863 5862 5860 5859 5858 5857 5856 5855 5855 5854 5853
5888 5887 5887 5886 5885 5884 5883 5883 5882 5881 5880 5879 5879 5878 5876 5875 5874 5873 5872 5871 5870 5869 5869 5868 5866 5865 5864 5863 5862 5860 5859 5859 5857 5856 5854 5853 5852 5851 5850 5848 5847 5846 5845
5885 5884 5884 5883 5882 5881 5880 5879 5878 5877 5876 5875 5874 5873 5872 5871 5870 5869 5868 5866 5865 5864 5863 5862 5861 5859 5858 5857 5856 5855 5853 5852 5851 5849 5848 5846 5845 5844 5842 5841 5839 5838 5837
5881 5881 5880 5879 5878 5878 5876 5875 5874 5873 5872 5871 5870 5869 5868 5867 5865 5864 5863 5861 5860 5858 5857 5856 5855 5853 5852 5851 5849 5848 5847 5845 5844 5842 5841 5839 5838 5836 5834 5833 5831 5829 5828
5878 5877 5877 5876 5875 5874 5872 5871 5870 5869 5868 5867 5866 5865 5864 5862 5861 5859 5857 5856 5854 5853 5851 5850 5848 5847 5846 5844 5843 5841 5839 5838 5836 5834 5833 5831 5829 5827 5825 5823 5821 5820 5818
5874 5874 5873 5872 5871 5869 5868 5867 5866 5865 5864 5863 5861 5860 5859 5857 5855 5854 5852 5850 5849 5847 5845 5843 5842 5840 5839 5837 5835 5833 5832 5830 5828 5826 5824 5822 5820 5818 5816 5814 5812 5810 5807
5871 5870 5869 5868 5866 5865 5864 5862 5861 5860 5859 5858 5856 5855 5853 5851 5850 5848 5846 5844 5842 5840 5839 5837 5835 5833 5831 5829 5827 5825 5823 5821 5818 5817 5815 5812 5810 5807 5805 5803 5801 5799 5797
5867 5866 5865 5864 5862 5861 5860 5858 5857 5856 5854 5853 5851 5849 5847 5845 5844 5842 5840 5837 5835 5833 5831 5829 5827 5825 5822 5820 5818 5816 5814 5811 5809 5806 5804 5802 5799 5797 5794 5792 5790 5788 5786
5863 5862 5860 5859 5858 5857 5856 5854 5853 5851 5849 5848 5846 5844 5841 5839 5838 5835 5833 5831 5829 5826 5824 5822 5819 5817 5814 5812 5809 5807 5804 5802 5799 5797 5794 5792 5789 5786 5783 5781 5779 5776 5774
5858 5857 5856 5855 5854 5852 5851 5849 5848 5846 5845 5843 5840 5838 5836 5833 5831 5829 5826 5824 5821 5819 5816 5814 5811 5809 5806 5803 5800 5798 5795 5792 5790 5787 5784 5781 5778 5776 5773 5770 5767 5764 5762